Location: Castiglione Fibocchi
(43.5333°N, 11.7667°E)
Time: 17:46:31
(UTC+00:00)

CZ-4B R/B - Pass Details

Date: 15 August 2020
Orbit: 391 x 463 km, 97.6° (Epoch: 17 September)

Event Time Altitude Azimuth Distance (km) Brightness Sun altitude
Rises 02:59:28 0° 144° (SE) 2,371 5.1 -13.5°
Reaches altitude 10° 03:01:38 10° 132° (SE) 1,498 4.2 -13.1°
Maximum altitude 03:04:25 28° 71° (ENE) 812 3.5 -12.7°
Drops below altitude 10° 03:07:10 10° 10° (N) 1,477 4.7 -12.3°
Sets 03:09:18 0° 359° (N) 2,332 5.5 -12.0°
